User: anonymous   Login
Location: Unspecified
(0.0000°N, 0.0000°E)
Time: 06:44:15
(UTC+00:00)
Language:

UGATUSAT - Orbit

View from above orbital plane
View from above orbital plane
View from above satellite
View from above satellite

Ground track
Ground track

The orbit data is extracted from the following two-line orbital elements,

1 35869U 09049E   17087.95080790 +.00000001 +00000-0 +19084-4 0  9991
2 35869 098.4216 112.5057 0005056 031.7403 328.4080 14.22363616390672
Epoch (UTC): 28 March 2017 22:49:09
Eccentricity: 0.0005056
inclination: 98.4216°
perigee height: 814 km
apogee height: 821 km
right ascension of ascending node: 112.5057°
argument of perigee: 31.7403°
revolutions per day: 14.22363616
mean anomaly at epoch: 328.4080°
orbit number at epoch: 39067

The dashed part of the orbit path shows where the satellite is in the earth's shadow,  

DLR